Theta_e
312 317 317 317 317 313 313 315 315 315 312 315 316 316 316 316 315 315 315 316 315 316 318 318 317 316 314 314 315 316 316 316 315 314 313 313 312 314 320 325 329 327 324 325
314 315 316 313 313 314 314 315 315 315 312 313 316 316 316 316 315 315 316 316 316 316 316 317 317 316 316 315 314 314 314 314 314 313 312 311 311 312 312 318 325 325 323 325
314 314 313 313 312 314 315 315 315 315 313 312 313 315 316 316 313 314 314 314 315 315 316 315 314 316 316 316 315 314 314 313 313 312 311 311 311 311 312 317 320 321 322 322
314 313 312 312 313 313 314 313 314 314 315 315 313 314 315 316 315 315 315 315 315 315 315 314 314 315 315 316 316 314 313 313 312 311 311 311 311 311 312 314 316 316 324 323
314 312 312 313 313 313 315 312 313 313 315 315 315 315 315 313 315 316 316 316 316 315 314 314 314 314 315 314 315 315 313 312 312 311 311 310 310 310 312 314 315 317 323 321
312 309 312 313 310 312 310 313 312 312 315 317 315 315 315 316 316 316 315 315 314 314 315 315 315 315 315 314 313 313 312 312 311 311 310 310 309 310 311 315 315 318 320 321
312 313 311 310 313 311 313 315 315 317 318 317 313 315 316 316 314 316 317 317 313 313 315 316 316 317 316 315 314 313 311 311 310 310 309 309 309 310 311 312 312 317 319 319
314 313 313 312 314 315 314 315 318 323 316 315 311 315 316 315 314 313 313 313 312 312 313 314 315 315 316 316 315 313 312 310 309 309 308 308 308 309 311 311 314 316 315 318
312 313 309 309 311 313 313 314 314 315 307 315 314 315 316 314 314 313 313 313 312 314 314 314 316 316 315 315 314 313 312 310 309 309 308 308 308 309 310 311 312 317 316 316
313 314 310 309 310 310 312 313 315 314 321 319 315 315 316 317 316 315 314 312 313 313 315 316 316 315 315 314 314 313 313 311 310 309 308 308 308 309 310 310 312 314 316 316
313 313 312 310 312 314 312 313 313 314 316 322 319 317 317 318 316 315 315 313 313 313 315 316 317 316 316 315 315 314 314 313 312 310 308 308 308 308 310 310 311 314 314 315
312 314 317 314 310 308 312 314 314 315 316 314 315 318 312 314 313 312 312 312 313 314 315 316 316 316 316 316 316 316 316 315 314 312 310 308 308 308 310 311 311 313 314 316
312 315 319 318 313 309 311 311 313 314 314 320 321 320 310 310 313 312 313 313 312 313 313 314 314 315 315 315 315 316 315 315 314 313 310 308 308 309 309 311 312 312 314 314
312 314 318 322 318 315 313 313 312 314 317 317 318 317 318 314 314 313 313 313 314 314 314 313 313 314 315 315 314 314 314 314 312 311 310 309 308 309 309 312 312 311 313 314
310 312 314 316 317 313 313 315 313 314 315 317 318 317 317 316 315 315 315 314 313 313 313 314 314 314 311 313 313 313 313 313 312 311 310 309 308 309 308 310 312 312 311 312
310 312 310 312 314 314 315 315 313 314 314 315 315 316 316 315 314 312 314 314 314 314 314 313 312 314 314 314 313 313 313 313 312 310 310 308 307 308 308 308 310 311 310 310
311 311 313 313 313 316 316 316 317 315 314 314 316 316 315 315 314 314 314 314 313 314 314 314 314 313 313 313 313 313 313 312 311 309 308 307 306 307 307 307 310 310 310 308
311 310 311 315 314 318 316 311 315 317 316 316 315 315 315 315 314 313 313 313 313 313 313 313 312 312 312 312 313 312 312 311 311 309 307 306 305 305 305 307 308 309 308 308
310 311 312 314 315 315 313 311 314 315 316 315 315 315 315 315 315 315 315 313 313 313 312 312 311 312 312 311 311 310 309 309 309 308 305 304 302 302 302 304 305 306 306 305
307 310 311 312 313 313 311 310 308 312 315 313 314 315 315 314 315 315 312 312 312 311 311 311 310 310 310 309 309 310 309 309 308 306 303 301 300 299 299 300 301 302 302 300
307 309 310 311 311 310 309 304 310 315 313 301 301 305 309 313 314 313 311 311 311 310 309 308 308 308 308 307 307 307 306 305 304 302 300 299 298 297 296 296 297 297 297 296
305 308 310 311 311 311 301 306 310 305 302 301 304 301 301 304 307 309 309 309 308 306 306 306 306 305 305 304 304 303 302 301 299 298 297 296 295 295 294 294 295 295 296 295
305 306 307 308 308 302 301 302 301 301 302 302 301 306 302 300 302 305 306 305 304 305 305 304 304 303 304 304 304 304 302 300 299 298 296 295 294 293 293 292 293 293 293 293
302 301 305 301 303 303 302 302 301 299 300 301 302 304 305 299 298 300 301 303 303 303 304 303 304 304 306 305 304 303 302 300 299 296 295 294 292 292 291 291 291 290 291 290
300 300 301 302 301 302 302 302 299 300 303 304 303 303 305 306 306 301 298 299 301 301 301 301 302 303 304 303 303 302 301 300 298 298 297 295 293 293 292 291 290 290 289 291
298 299 299 300 300 299 298 298 298 301 302 303 304 302 304 304 303 303 301 299 299 300 297 299 300 301 300 299 302 301 299 298 298 297 297 297 296 295 294 293 292 291 290 289
Wind_Speed
3 7 11 17 11 2 2 3 6 7 3 3 12 20 21 22 21 27 29 30 30 32 33 30 29 30 34 37 40 40 40 39 37 37 36 37 38 38 39 39 38 38 36 35
4 12 15 4 8 7 6 10 13 12 3 6 13 20 21 23 29 29 30 33 34 32 32 34 36 34 36 38 41 41 42 40 39 37 36 37 37 37 38 37 37 37 35 37
14 5 9 8 6 10 11 14 12 10 3 8 11 14 15 10 16 24 30 34 35 37 34 28 33 35 37 40 42 43 43 41 40 38 37 38 35 35 35 36 39 38 37 39
10 6 6 7 8 13 15 13 10 8 4 8 2 10 18 15 17 13 25 28 33 28 29 30 29 31 35 37 39 41 43 43 42 40 40 38 39 38 38 36 35 33 36 32
6 10 12 11 9 14 4 6 7 3 6 6 11 7 7 2 8 15 23 28 22 19 22 24 24 23 24 29 35 39 43 44 43 42 40 39 38 36 36 36 34 33 37 35
1 0 5 3 3 7 13 7 4 2 1 9 10 9 13 7 10 7 10 16 9 5 6 7 11 15 19 24 27 33 39 42 42 42 41 40 38 37 37 37 35 36 36 36
4 7 3 4 7 3 4 8 3 4 5 10 5 9 21 15 13 13 14 17 9 9 5 4 5 7 11 15 21 27 33 38 40 42 41 40 38 37 34 35 36 36 38 41
13 11 14 12 14 10 13 10 6 7 6 8 4 10 6 13 17 24 22 26 21 21 18 13 12 11 12 12 14 19 24 30 36 39 39 38 37 37 34 33 34 35 34 35
7 9 1 2 5 12 7 11 9 6 2 4 11 20 14 11 15 14 20 16 16 15 13 13 11 8 8 8 10 13 17 22 30 33 35 37 38 37 35 32 32 35 35 37
5 7 2 1 3 1 9 10 5 4 6 8 10 11 13 6 11 14 13 14 15 15 9 8 5 4 4 5 5 7 11 16 22 26 30 34 35 34 33 32 33 36 39 37
13 7 3 4 10 16 8 10 3 3 5 4 7 11 4 7 6 10 5 5 7 9 16 10 6 3 4 3 2 1 5 9 14 20 25 29 32 32 32 31 30 35 37 37
8 5 13 16 1 3 9 16 20 7 5 5 5 17 6 3 2 4 2 1 2 9 17 12 9 9 8 6 3 3 7 11 13 16 22 27 30 31 33 33 32 34 36 37
3 5 3 3 2 1 7 9 13 17 2 14 9 20 4 2 2 1 3 2 2 10 13 13 6 7 11 11 9 10 13 16 17 19 23 28 32 32 33 34 33 34 37 37
3 6 9 12 3 6 9 16 18 18 10 23 16 34 20 4 6 4 4 6 7 9 14 15 15 14 14 18 15 17 18 20 22 24 26 30 34 34 32 34 35 34 36 37
4 4 5 18 15 4 3 13 21 24 30 17 32 21 27 19 14 23 24 23 22 25 25 28 27 27 25 19 20 20 21 21 25 27 27 30 32 34 31 34 36 36 37 38
9 4 2 8 14 14 13 11 15 23 26 23 30 28 30 25 17 12 23 27 27 31 35 35 35 35 30 22 23 21 23 28 29 31 31 31 33 34 33 33 36 37 36 37
7 4 3 19 12 12 11 28 23 20 19 21 23 32 24 18 18 31 35 34 29 35 38 39 35 27 27 28 26 29 31 32 32 30 30 31 33 33 34 32 35 38 37 36
8 5 3 8 3 9 4 4 18 23 25 20 23 30 27 23 24 28 36 31 35 33 33 31 30 28 28 30 29 27 26 26 29 29 29 30 32 32 33 34 36 38 39 37
16 13 7 7 11 12 14 5 4 9 16 21 24 27 35 38 24 38 38 35 37 35 31 28 28 26 23 20 20 23 22 23 23 25 25 25 28 31 32 34 36 37 37 37
11 15 13 12 9 17 20 11 9 4 14 6 18 22 24 27 9 17 15 13 18 19 17 14 13 15 17 17 17 17 18 19 19 18 18 19 21 24 26 28 31 32 35 35
2 4 14 17 15 10 18 4 13 12 11 9 17 20 19 11 15 20 12 13 13 13 13 13 11 10 11 11 11 11 12 12 12 12 13 14 14 15 18 20 24 27 28 29
9 8 7 7 11 19 8 6 2 9 16 16 17 19 19 15 18 22 16 13 13 12 10 10 8 7 8 6 5 5 6 7 7 7 8 9 9 11 13 15 18 20 22 23
7 6 8 5 2 1 5 5 13 14 20 24 20 19 20 16 13 10 12 13 12 10 8 8 7 8 8 7 6 4 4 4 4 5 6 7 8 8 8 9 11 13 14 17
5 2 4 7 3 4 22 22 13 15 21 26 26 22 17 13 15 14 13 11 12 10 10 11 12 12 10 7 5 5 5 6 7 7 8 7 7 7 8 10 11 12 14 17
9 5 10 13 17 13 18 14 20 24 20 21 25 24 21 14 15 16 17 14 13 13 13 14 14 13 12 11 9 8 7 7 11 11 11 11 10 10 9 8 6 7 10 10
15 17 12 14 19 5 15 24 22 21 26 27 24 30 27 21 17 16 18 15 16 14 17 16 16 14 14 13 11 11 11 12 10 12 12 10 9 9 9 7 7 7 8 8
Wind_Direction
130 209 209 223 218 207 126 220 259 261 174 253 254 267 272 271 266 265 264 262 259 255 258 253 248 245 239 236 234 234 235 235 234 236 236 236 234 232 231 226 226 226 227 233
167 226 226 105 177 201 223 259 261 281 227 222 272 268 276 269 259 258 262 263 259 261 256 252 251 249 244 240 237 234 236 236 237 238 238 237 236 233 232 225 225 224 224 230
214 185 184 178 177 200 228 235 249 262 305 228 290 269 251 264 259 260 257 259 261 256 258 254 255 252 247 241 239 236 236 237 238 236 234 236 235 234 229 223 226 226 226 229
238 191 166 176 209 205 239 213 237 254 281 276 238 287 281 270 266 256 261 254 256 264 264 263 253 260 252 247 243 240 238 236 236 235 237 237 237 235 234 232 229 229 218 221
203 184 196 210 221 185 232 143 181 187 236 315 238 264 249 173 260 252 259 264 270 267 272 272 267 261 254 247 243 241 237 235 235 235 237 238 237 237 236 234 232 227 231 226
286 183 198 212 91 173 139 102 78 88 217 262 244 220 274 207 233 254 254 270 277 301 290 266 254 249 240 237 235 236 236 236 235 236 237 237 237 234 234 231 231 227 227 224
179 211 188 165 112 84 195 159 217 232 198 251 96 210 251 286 249 248 265 270 276 282 264 270 270 251 243 241 239 236 234 234 234 235 234 234 233 237 237 237 235 226 226 230
208 234 186 188 215 178 194 199 204 225 228 276 108 237 262 242 268 246 260 269 274 273 268 265 270 254 245 241 239 239 239 236 234 235 234 236 235 239 238 238 230 228 234 231
190 240 218 236 202 187 173 213 250 268 124 279 255 265 259 233 250 253 248 249 266 277 270 252 245 248 246 241 240 243 244 239 239 239 235 234 235 237 239 237 229 227 230 235
209 259 164 109 177 212 211 145 170 213 224 241 256 264 254 236 240 247 254 255 257 248 230 224 227 216 214 217 231 250 258 250 248 244 238 236 238 239 238 234 231 230 233 234
216 228 136 139 209 191 179 210 209 223 224 241 272 260 178 235 278 267 278 270 269 238 207 182 203 204 194 171 149 247 267 271 261 247 239 235 236 239 236 234 232 232 234 240
201 236 236 220 109 301 238 222 203 206 198 239 275 264 142 87 14 303 220 249 214 174 167 156 189 196 198 196 190 243 261 266 265 252 242 236 234 239 235 233 230 228 235 237
208 208 232 236 213 195 222 204 219 231 31 235 226 259 74 126 245 322 219 273 265 178 182 188 190 222 224 223 235 253 249 256 253 252 243 236 235 238 237 232 230 229 234 235
342 209 219 229 225 150 205 213 207 199 216 240 231 258 253 222 218 216 270 290 296 246 242 245 257 274 268 250 246 256 247 251 249 249 245 240 239 240 244 234 231 229 231 231
168 269 275 273 293 289 245 219 209 210 228 228 250 251 261 252 237 269 284 280 274 279 266 267 274 279 270 254 263 270 262 266 265 256 253 250 245 242 247 238 234 235 235 238
175 240 334 301 276 242 254 259 240 223 232 235 249 255 257 258 260 258 254 260 274 280 283 285 288 293 287 275 282 279 279 276 269 263 260 254 248 245 246 242 238 238 241 242
188 198 204 269 256 236 244 237 234 236 234 232 243 248 266 267 254 253 260 264 268 271 278 283 288 280 276 279 277 277 276 270 267 265 260 258 252 247 246 244 241 241 241 245
234 208 185 263 194 237 254 329 236 231 240 240 250 260 266 270 274 268 261 262 264 267 278 281 275 273 276 278 278 274 268 267 267 266 260 257 253 249 245 243 241 242 243 243
226 227 239 245 244 286 296 222 179 200 247 241 241 253 261 265 270 273 271 266 270 269 270 270 270 273 274 272 270 269 268 267 265 264 261 256 253 251 246 243 242 243 245 245
231 233 234 242 244 255 262 256 237 187 264 190 219 242 253 260 242 262 281 276 260 262 264 259 255 262 266 268 268 267 265 265 266 264 261 256 252 252 251 248 246 245 246 246
222 207 231 239 246 252 265 156 150 216 267 23 331 296 307 272 245 270 261 260 246 246 252 256 254 253 255 253 254 251 250 252 248 244 243 243 242 241 242 240 241 244 246 248
259 252 232 236 234 242 18 92 274 327 323 322 322 326 316 305 286 261 253 245 250 243 235 236 237 234 232 227 227 230 224 226 214 210 215 222 220 218 225 231 233 235 241 247
247 249 263 268 322 118 64 15 325 331 299 308 298 297 310 323 315 286 265 252 245 238 224 211 199 191 181 167 159 154 155 164 158 168 171 185 190 188 196 215 227 230 234 237
233 220 226 352 187 248 290 295 287 309 294 302 293 290 287 305 312 301 283 261 250 235 212 202 193 187 186 181 179 184 176 178 171 172 163 162 163 163 170 181 193 213 224 230
245 180 254 265 267 275 256 251 291 295 290 293 280 269 271 270 281 278 284 272 264 258 224 198 190 189 185 177 176 169 169 163 149 140 139 141 143 142 148 158 187 219 237 249
225 238 239 251 260 242 275 291 280 270 281 292 285 267 256 254 257 248 247 251 252 240 240 198 187 188 184 172 175 168 157 144 143 141 136 135 140 143 146 163 186 209 220 228